User: anonymous   Login
Location: Caltech
(34.1382°N, 118.1253°W)
Time: 20:29:40
(UTC-08:00)
Language:

Cosmos 1484 Rocket - Orbit

View from above orbital plane
View from above orbital plane
View from above satellite
View from above satellite

Ground track
Ground track

The orbit data is extracted from the following two-line orbital elements,

1 14208U 83075B   17055.20796861  .00000401  00000-0  27852-4 0  9998
2 14208  97.3447  70.3993 0040122 158.7656 201.5250 15.10271636830456
Epoch (UTC): 24 February 2017 04:59:28
Eccentricity: 0.0040122
inclination: 97.3447°
perigee height: 507 km
apogee height: 563 km
right ascension of ascending node: 70.3993°
argument of perigee: 158.7656°
revolutions per day: 15.10271636
mean anomaly at epoch: 201.5250°
orbit number at epoch: 83045

The dashed part of the orbit path shows where the satellite is in the earth's shadow,  

DLR